Weather History for Camp Pendleton, CA

Change the Weather History Date:

Thursday, January 24, 2013

  Actual Average Record
Temperature  
Mean Temperature 64 °F -  
Max Temperature 71 °F 64 °F 72 °F (2014)
Min Temperature 57 °F 39 °F 45 °F (2014)
Degree Days  
Heating Degree Days 1    
Growing Degree Days 14 (Base 50)    
Moisture  
Dew Point 49 °F    
Average Humidity 63    
Maximum Humidity 84    
Minimum Humidity 46    
Precipitation  
Precipitation 0.04 in - - ()
Sea Level Pressure  
Sea Level Pressure 30.13 in    
Wind  
Wind Speed 3 mph (NE)    
Max Wind Speed 9 mph    
Max Gust Speed -    
Visibility 9 miles    
Events Rain    
Averages and records for this station are not official NWS values.
T = Trace of Precipitation, MM = Missing Value Source: NWS Daily Summary

Daily Weather History Graph

Daily Weather History Graph

Search for Another Location

Airport:

Trip Planner

Search our weather history database for the weather conditions in past years. The results will help you decide how hot, cold, wet, or windy it might be!

Date:

Astronomy

Jan. 24, 2013 Rise Set
Actual Time 6:49 AM PST 5:13 PM PST
Civil Twilight 6:23 AM PST 5:40 PM PST
Nautical Twilight 5:53 AM PST 6:10 PM PST
Astronomical Twilight 5:23 AM PST 6:39 PM PST
Moon 3:21 PM PST 4:48 AM PST
Length of Visible Light 11h 16m
Length of Day
10h 24m
Waxing Gibbous, 95% of the Moon is Illuminated
Jan 24
Waxing Gibbous
Jan 26
Full
Feb 3
Last Quarter
Feb 9
New
Feb 17
First Quarter

Hourly Weather History & Observations

Time (PST) Temp. Dew Point Humidity Pressure Visibility Wind Dir Wind Speed Gust Speed Precip Events Conditions
12:54 AM 57.9 °F 42.1 °F 56% 30.12 in 10.0 mi NE 3.5 mph - N/A   Overcast
1:54 AM 60.1 °F 39.0 °F 46% 30.12 in 10.0 mi Calm Calm - N/A   Overcast
2:54 AM 57.9 °F 44.1 °F 60% 30.11 in 10.0 mi Calm Calm - 0.00 in Rain Light Rain
3:54 AM 57.0 °F 44.1 °F 62% 30.10 in 10.0 mi NNE 4.6 mph - 0.00 in Rain Light Rain
4:54 AM 59.0 °F 44.1 °F 58% 30.11 in 10.0 mi NNE 6.9 mph - 0.00 in   Overcast
5:54 AM 57.9 °F 46.9 °F 67% 30.12 in 10.0 mi NNE 3.5 mph - 0.00 in Rain Light Rain
6:54 AM 57.9 °F 46.9 °F 67% 30.12 in 6.0 mi NE 5.8 mph - 0.00 in Rain Light Rain
7:54 AM 57.9 °F 46.0 °F 65% 30.14 in 6.0 mi Calm Calm - 0.00 in Rain Light Rain
8:54 AM 57.9 °F 48.9 °F 72% 30.17 in 5.0 mi NE 8.1 mph - 0.02 in Rain Light Rain
9:54 AM 60.1 °F 51.1 °F 72% 30.21 in 10.0 mi ENE 4.6 mph - 0.00 in   Overcast
10:54 AM 63.0 °F 52.0 °F 67% 30.20 in 10.0 mi NE 9.2 mph - 0.00 in   Overcast
11:54 AM 64.9 °F 52.0 °F 63% 30.16 in 10.0 mi NE 8.1 mph - N/A   Mostly Cloudy
12:54 PM 66.9 °F 53.1 °F 61% 30.13 in 10.0 mi NE 6.9 mph - 0.00 in   Mostly Cloudy
1:54 PM 69.1 °F 52.0 °F 54% 30.12 in 10.0 mi Calm Calm - N/A   Mostly Cloudy
2:54 PM 70.0 °F 51.1 °F 51% 30.09 in 10.0 mi South 3.5 mph - N/A   Mostly Cloudy
3:54 PM 71.1 °F 52.0 °F 51% 30.10 in 10.0 mi Calm Calm - N/A   Scattered Clouds
4:54 PM 66.9 °F 52.0 °F 59% 30.11 in 10.0 mi SW 3.5 mph - N/A   Mostly Cloudy
5:54 PM 64.0 °F 51.1 °F 63% 30.12 in 10.0 mi Calm Calm - N/A   Scattered Clouds
6:54 PM 62.1 °F 51.1 °F 67% 30.12 in 10.0 mi Calm Calm - N/A   Mostly Cloudy
7:54 PM 59.0 °F 50.0 °F 72% 30.12 in 10.0 mi Calm Calm - N/A   Mostly Cloudy
8:54 PM 60.1 °F 51.1 °F 72% 30.14 in 10.0 mi Calm Calm - N/A   Mostly Cloudy
9:54 PM 57.9 °F 53.1 °F 84% 30.12 in 9.0 mi NE 3.5 mph - 0.02 in Rain Light Rain
10:55 PM 60.1 °F 54.0 °F 80% 30.09 in 10.0 mi North - - 0.02 in   Overcast
11:55 PM 62.1 °F 55.4 °F 79% 30.09 in 10.0 mi NE 4.6 mph - N/A   Mostly Cloudy